Temperature
22 22 22 22 22 21 21 21 21 20 20 20 19 19 19 19 19 19 19 19 18 18 18 18 18 18 18 18 18 17 17 17 17 17 17 17 17 17 17 17 17 17 17
22 22 22 22 22 21 21 21 21 20 20 20 20 19 19 19 19 19 19 19 18 18 18 18 18 18 18 18 18 18 17 17 17 17 17 17 17 17 17 17 17 17 17
23 22 22 22 22 21 21 21 21 20 20 20 19 19 19 19 19 19 19 19 18 18 18 18 18 18 18 18 18 17 17 17 17 17 17 17 17 17 17 17 17 17 17
23 23 22 22 22 22 21 21 21 20 20 20 19 19 19 19 19 19 19 18 18 18 18 18 18 18 18 18 18 17 17 17 17 17 17 17 17 16 16 17 17 17 17
23 23 22 22 22 22 21 21 21 20 20 19 19 19 19 19 19 19 19 18 18 18 18 18 18 18 18 17 17 17 17 17 17 17 17 17 16 16 16 16 17 17 17
23 23 22 22 22 22 21 21 21 20 20 20 19 19 19 19 19 19 19 18 18 18 18 18 18 18 18 17 17 17 17 17 17 17 17 16 16 16 16 16 16 16 17
23 22 22 22 22 22 21 21 21 20 20 20 19 19 19 19 19 19 19 18 18 18 18 18 18 18 17 17 17 17 17 17 17 17 16 16 16 16 16 16 16 16 16
22 22 22 22 22 22 22 21 21 20 20 20 19 19 19 19 19 19 19 18 18 18 18 18 17 17 17 17 17 17 17 17 16 16 16 16 16 16 16 16 16 15 15
22 22 22 22 22 22 22 21 21 21 20 20 20 19 19 19 19 19 19 18 18 18 18 17 17 17 17 17 17 17 17 16 16 16 16 16 16 16 16 16 16 16 15
22 22 22 22 22 22 21 21 21 20 20 19 19 19 19 19 19 18 18 18 18 18 17 17 17 17 17 16 16 16 16 16 16 16 16 16 16 16 16 16 15 15 15
21 22 22 22 22 21 21 21 20 20 20 19 19 19 19 19 18 18 18 18 18 17 17 17 17 17 16 16 16 16 16 16 16 16 16 16 15 15 15 15 15 15 15
22 22 22 21 21 21 21 21 20 20 20 19 19 19 19 19 18 18 18 17 17 17 17 17 17 17 17 16 16 16 16 16 16 15 15 15 15 15 15 15 15 15 15
21 22 21 21 21 21 21 21 21 20 20 19 19 19 19 19 18 18 18 17 17 17 17 17 17 16 16 16 16 16 16 15 15 15 15 15 15 15 15 15 14 14 14
21 21 21 21 21 21 21 20 20 20 19 19 19 19 19 18 18 18 18 17 17 17 17 16 16 16 16 16 16 16 16 15 15 15 15 15 15 14 14 14 14 14 14
21 21 21 21 21 21 20 20 20 20 19 19 19 18 18 18 18 18 17 17 17 16 16 16 16 16 16 16 16 15 15 15 15 15 15 14 14 14 14 14 14 14 13
21 21 21 21 21 20 20 20 20 19 19 18 18 18 18 18 18 17 17 17 17 16 16 16 16 16 15 15 15 15 15 15 15 14 14 14 14 14 14 13 13 13 13
20 21 21 20 20 20 20 20 20 19 19 18 18 18 17 17 17 17 17 16 16 16 16 16 16 15 15 15 15 15 15 14 14 14 14 14 13 13 13 13 13 13 13
21 21 20 20 20 20 20 19 19 19 19 19 18 18 17 17 17 17 16 16 16 16 16 16 15 15 15 15 15 14 14 14 14 14 14 14 13 13 13 13 13 13 13
21 21 20 20 19 19 19 19 19 18 18 18 18 17 17 17 17 16 16 16 16 16 16 15 15 15 15 15 14 14 14 14 14 14 14 13 13 13 13 13 13 12 12
20 20 20 19 19 19 19 18 18 18 18 17 17 17 17 17 16 16 16 16 16 16 15 15 15 15 15 14 14 14 14 14 14 13 13 13 13 13 13 13 12 12 12
20 19 19 19 19 19 18 18 18 18 17 17 17 17 17 16 16 16 16 16 15 15 15 15 15 15 14 14 14 14 14 14 14 13 13 13 13 13 13 12 12 12 12
19 19 19 19 18 18 18 17 17 17 17 17 17 17 16 16 16 15 15 15 15 15 15 15 15 14 14 14 14 14 14 13 13 13 13 13 13 13 12 12 12 12 12
19 19 18 18 18 18 17 17 17 17 16 16 16 16 16 15 15 15 15 15 15 15 15 14 14 14 14 14 14 14 14 13 13 13 13 13 12 12 12 12 12 12 12
18 18 18 18 17 17 17 17 16 16 16 16 15 15 15 15 15 15 15 14 14 14 14 14 14 14 14 14 14 14 13 13 13 13 13 13 12 12 12 12 12 12 12
17 17 17 17 17 16 16 16 16 15 15 15 15 15 14 14 14 14 14 14 14 14 14 14 14 14 14 14 14 13 13 13 13 13 12 12 12 12 12 12 11 11 11
16 16 16 16 16 16 16 16 15 15 15 15 14 14 14 14 14 14 14 14 14 14 14 14 14 14 14 13 13 13 13 13 13 12 12 12 12 12 11 11 11 11 11
Wind_Speed
5 5 6 7 7 6 6 6 6 5 5 3 3 2 1 1 1 1 1 1 1 2 2 1 1 1 1 1 1 1 2 2 1 2 2 2 2 1 0 0 1 0 1
4 5 5 6 7 7 6 6 6 6 5 4 3 2 2 1 1 0 1 1 1 1 1 2 1 1 1 1 1 2 1 1 1 1 1 2 3 2 1 0 0 0 0
8 7 7 7 7 7 7 7 6 6 5 5 4 3 2 2 1 1 1 1 1 1 1 1 1 1 1 1 1 2 2 1 1 1 2 1 1 2 2 1 1 1 0
8 7 7 7 7 7 6 6 6 6 5 5 5 5 4 3 2 1 1 1 1 1 1 1 1 1 1 1 1 1 1 2 1 1 1 1 2 1 1 2 2 2 1
9 9 9 8 7 6 6 5 5 5 5 5 6 5 4 3 2 1 1 0 1 1 0 1 1 1 1 1 1 1 1 1 2 1 1 1 1 1 1 2 3 2 2
9 8 7 6 6 6 6 5 6 5 5 6 6 6 6 5 4 2 2 1 0 0 0 1 1 1 1 1 1 1 2 1 1 1 1 1 1 1 1 2 2 2 3
9 9 8 8 7 8 7 7 6 5 5 6 6 6 7 6 6 4 3 2 1 1 1 1 1 1 1 1 1 2 1 1 1 1 1 1 1 1 2 1 1 2 2
7 8 9 9 9 9 8 7 7 6 5 5 6 5 5 4 4 4 3 3 2 2 1 2 2 1 1 1 2 2 1 1 1 1 1 1 1 1 2 2 2 1 1
7 7 7 7 7 8 8 8 7 5 5 5 5 5 5 5 4 4 3 2 2 2 2 2 2 1 1 1 2 2 1 1 1 1 1 1 0 1 1 2 3 2 1
5 6 6 6 6 7 7 6 6 6 5 4 4 5 4 4 4 4 4 3 3 2 2 2 2 2 1 1 2 1 1 1 0 0 1 0 0 0 0 1 1 2 2
6 6 6 6 6 6 7 6 6 5 4 4 3 4 4 4 4 3 3 3 3 3 3 2 2 2 2 2 2 1 1 1 0 0 1 0 0 0 0 0 1 1 1
5 5 5 5 6 6 6 6 6 5 5 4 4 3 4 4 3 3 3 2 3 3 3 3 2 1 1 1 2 2 1 2 1 0 1 0 0 1 0 0 0 0 1
5 5 5 6 6 6 5 6 6 5 4 4 4 3 4 4 4 3 3 2 2 2 2 2 2 2 2 2 2 2 2 1 1 1 1 1 1 0 0 1 0 0 0
5 5 5 5 5 5 5 5 5 5 4 4 4 3 3 4 4 3 3 3 3 3 3 3 3 3 2 2 2 2 1 1 1 1 1 1 2 2 1 1 1 1 1
4 5 5 4 4 4 4 4 4 4 4 4 3 3 2 3 3 3 3 3 3 3 3 3 2 2 2 2 2 3 2 2 1 1 1 1 1 2 2 2 2 2 1
5 5 4 4 4 5 5 5 4 3 4 4 3 2 2 2 3 3 3 3 3 2 2 3 3 3 3 3 4 4 2 2 2 1 1 1 1 1 2 2 3 4 3
5 6 6 6 6 6 6 6 5 4 4 4 3 3 3 3 2 3 3 3 3 3 3 3 4 4 4 4 4 4 3 3 2 2 2 2 1 1 1 1 1 1 2
4 4 4 4 4 4 4 4 4 4 4 3 2 2 3 3 3 2 4 4 4 3 4 4 4 4 4 5 6 5 4 3 3 4 4 3 3 3 3 2 1 1 2
3 3 3 3 3 4 4 5 4 4 3 3 3 3 3 3 3 4 4 4 4 4 3 3 4 5 5 5 6 5 3 3 4 4 4 4 4 5 5 3 2 2 3
2 2 3 3 3 3 5 5 4 4 4 4 3 3 3 3 3 4 4 3 4 4 4 4 4 5 5 5 6 6 4 4 4 3 4 5 5 5 6 5 4 4 3
2 3 3 3 3 3 4 4 3 4 4 3 2 2 2 3 3 2 2 3 3 3 3 4 4 4 5 6 6 7 5 5 5 4 4 4 5 6 6 6 5 6 4
2 3 3 2 2 4 4 3 4 3 2 2 2 2 2 2 1 2 1 1 2 3 3 3 4 4 4 5 6 7 8 7 6 5 5 4 5 6 6 5 6 5 3
2 2 3 2 2 2 4 5 3 2 2 1 2 2 2 1 2 2 2 1 2 3 3 3 4 4 4 4 6 7 7 8 6 5 6 5 5 5 4 5 5 4 3
1 1 2 2 1 1 2 3 3 3 3 2 2 2 2 2 2 2 3 2 3 4 4 4 4 4 4 4 3 3 4 4 4 3 3 3 3 3 3 3 3 3 4
0 1 2 2 2 2 2 2 2 3 3 3 3 2 2 2 3 3 3 4 5 6 5 5 5 5 5 5 6 5 4 4 4 2 1 1 1 1 2 2 2 3 3
0 0 0 1 1 1 2 2 2 3 4 3 3 3 2 2 2 3 3 5 5 6 6 7 6 6 7 6 6 6 6 6 7 4 3 3 3 4 4 4 4 3 4
Wind_Direction
197 177 174 168 162 162 159 161 161 158 147 139 141 140 155 154 143 164 133 140 153 168 146 141 117 113 120 138 127 111 87 70 81 77 29 16 34 56 63 97 117 163 201
178 169 164 164 169 172 169 166 171 168 167 164 153 145 139 142 158 188 54 69 105 155 154 157 156 136 132 105 123 139 130 89 88 109 74 7 5 13 22 47 128 158 186
190 180 174 175 172 174 179 181 180 173 168 157 133 116 88 60 43 13 351 357 68 122 130 145 150 145 150 164 183 168 155 164 71 98 131 141 242 318 352 4 2 356 284
184 177 174 178 181 185 179 173 173 168 164 157 155 154 159 177 205 201 220 344 42 82 118 133 148 147 145 166 205 169 163 158 164 105 103 156 164 174 323 339 343 340 316
183 182 182 183 181 177 171 165 159 165 163 163 167 162 167 180 167 134 126 62 5 20 74 126 136 154 169 182 180 147 150 161 162 157 150 116 82 149 186 282 321 339 327
184 180 172 165 170 168 166 161 159 169 168 168 171 173 175 170 159 165 178 204 252 334 16 130 144 157 162 170 175 154 135 141 146 149 147 156 168 192 190 232 287 310 321
178 172 167 171 178 177 177 172 170 176 175 175 182 186 184 178 181 185 187 186 191 208 234 163 155 159 157 134 120 108 114 133 145 163 175 182 203 185 176 186 256 291 312
175 174 177 179 185 183 180 176 176 181 179 181 188 184 179 180 187 186 182 189 202 207 188 152 140 125 105 109 111 111 108 105 126 143 146 158 197 186 187 185 184 277 312
172 174 174 177 180 180 181 179 176 180 181 180 177 171 171 174 179 176 177 187 195 185 155 146 131 112 102 116 124 118 108 107 117 153 146 155 222 202 216 196 189 187 233
165 169 168 170 182 178 174 168 170 176 176 172 179 179 174 176 173 166 176 186 189 170 152 142 135 127 123 122 116 118 117 109 76 179 133 111 283 194 156 184 210 202 194
171 173 168 170 167 158 162 166 169 167 167 171 168 164 167 168 163 171 186 187 176 164 167 165 150 147 151 142 131 139 135 125 67 28 129 117 227 135 107 134 139 157 177
165 156 152 153 158 161 166 168 170 170 173 168 159 160 160 158 167 181 187 179 171 169 168 163 159 166 160 168 169 188 181 169 178 201 133 176 151 99 101 110 91 167 192
147 144 145 160 166 166 171 170 169 170 162 154 152 146 162 169 179 186 179 178 182 179 176 172 180 193 194 195 198 187 191 188 201 208 196 211 153 140 136 120 94 27 116
153 150 152 162 162 164 165 165 163 160 155 152 155 159 182 186 181 175 176 181 184 186 186 186 196 202 201 203 204 186 181 189 219 218 206 203 188 192 191 174 171 139 118
157 163 167 170 161 154 150 153 153 151 152 154 165 185 189 187 170 167 181 178 181 190 189 188 199 209 207 212 198 192 188 188 207 235 228 211 198 191 183 172 174 154 143
168 166 168 173 174 168 164 156 153 154 157 165 179 182 170 170 182 181 183 178 180 182 181 199 206 213 223 215 199 186 188 195 202 226 255 254 223 203 181 175 172 164 169
177 171 174 186 187 184 173 168 164 158 159 164 171 177 182 192 202 201 185 193 198 189 196 212 214 222 228 211 204 195 187 197 214 221 233 246 242 214 193 164 141 188 192
179 180 174 175 173 167 162 159 149 153 159 171 175 174 188 208 208 202 210 210 208 206 212 218 220 224 231 209 201 197 194 206 225 228 225 223 233 222 192 183 201 249 249
184 178 163 157 154 151 151 145 150 156 167 191 196 199 200 209 214 219 232 220 209 217 221 221 223 224 236 216 203 193 193 215 236 237 230 221 225 220 195 183 206 260 277
146 147 143 141 152 162 154 151 166 173 197 209 209 207 203 206 221 228 240 225 205 215 218 228 230 225 231 226 211 195 198 217 236 244 240 230 223 218 198 196 204 233 256
150 145 141 151 169 161 155 166 183 205 208 199 198 202 202 209 224 228 242 221 204 208 217 237 248 237 234 233 224 208 206 217 227 235 239 235 223 222 213 209 217 228 231
144 145 144 158 155 157 158 180 221 228 200 186 204 218 222 219 219 211 237 229 201 211 229 243 261 257 243 236 232 221 217 214 218 232 237 238 227 226 225 223 226 227 222
155 156 156 155 153 166 168 190 222 204 187 206 233 243 245 229 205 202 211 230 218 214 233 236 248 263 261 249 237 229 222 213 217 233 236 240 236 232 230 228 226 228 220
149 148 141 155 191 191 196 195 190 183 185 214 234 240 244 261 255 233 216 219 234 225 228 234 243 255 259 253 234 222 216 210 214 232 233 221 212 221 231 239 240 233 227
300 169 172 196 221 217 226 208 180 170 190 221 229 236 237 246 259 260 246 236 239 221 220 233 234 236 250 245 219 209 213 207 198 186 208 216 229 242 256 257 250 238 232
5 59 216 229 252 255 258 245 193 176 183 209 225 227 230 241 254 265 290 272 253 244 232 232 231 236 238 241 230 221 210 198 174 168 207 225 230 236 242 246 249 244 240
Height
1499 1501 1504 1506 1508 1510 1512 1514 1515 1517 1519 1520 1521 1522 1522 1523 1524 1525 1526 1526 1526 1526 1527 1527 1526 1527 1526 1526 1526 1526 1526 1527 1527 1528 1528 1528 1528 1528 1529 1529 1530 1530 1530
1497 1500 1502 1505 1507 1509 1511 1513 1514 1516 1518 1519 1521 1522 1522 1523 1524 1525 1525 1526 1526 1526 1526 1526 1526 1526 1526 1526 1526 1526 1526 1527 1527 1527 1527 1528 1529 1528 1528 1528 1529 1529 1529
1496 1498 1501 1503 1506 1508 1510 1512 1514 1515 1517 1518 1520 1521 1522 1523 1523 1524 1524 1525 1525 1526 1526 1526 1526 1526 1526 1526 1526 1526 1526 1526 1527 1527 1528 1527 1527 1527 1527 1527 1528 1528 1528
1494 1497 1499 1502 1504 1506 1509 1511 1513 1515 1516 1517 1518 1519 1520 1521 1522 1523 1524 1524 1525 1525 1525 1526 1526 1526 1526 1526 1526 1526 1526 1526 1526 1526 1526 1527 1526 1526 1526 1527 1527 1527 1527
1492 1494 1497 1500 1503 1505 1508 1510 1512 1513 1515 1516 1517 1518 1519 1520 1521 1522 1523 1523 1524 1524 1525 1525 1525 1525 1525 1525 1525 1525 1525 1525 1525 1525 1525 1525 1525 1525 1525 1525 1525 1525 1526
1489 1492 1495 1498 1501 1504 1506 1508 1510 1511 1513 1514 1515 1517 1517 1519 1520 1521 1521 1522 1522 1523 1523 1524 1524 1524 1524 1524 1524 1524 1525 1524 1524 1524 1524 1524 1524 1524 1524 1524 1523 1523 1524
1486 1489 1492 1495 1498 1501 1503 1506 1508 1509 1511 1513 1514 1515 1516 1517 1518 1519 1520 1521 1521 1522 1522 1523 1523 1523 1523 1523 1523 1524 1523 1523 1523 1523 1523 1523 1523 1523 1523 1523 1522 1522 1522
1484 1486 1490 1493 1496 1498 1501 1504 1505 1507 1509 1510 1512 1513 1515 1516 1517 1518 1519 1519 1520 1520 1521 1521 1522 1522 1522 1522 1522 1522 1522 1522 1522 1522 1522 1522 1522 1522 1522 1522 1521 1520 1520
1481 1484 1487 1490 1493 1496 1499 1501 1504 1506 1507 1508 1510 1511 1512 1514 1515 1516 1517 1518 1519 1519 1520 1520 1521 1521 1521 1521 1521 1521 1521 1521 1521 1521 1521 1521 1521 1520 1520 1520 1520 1520 1519
1480 1483 1485 1488 1491 1494 1498 1500 1502 1504 1506 1507 1508 1510 1511 1512 1514 1515 1516 1516 1517 1518 1519 1519 1519 1520 1520 1520 1520 1520 1520 1520 1520 1520 1519 1519 1519 1518 1518 1518 1518 1518 1518
1478 1482 1485 1487 1490 1493 1496 1498 1500 1503 1504 1505 1506 1508 1509 1511 1512 1513 1514 1515 1515 1516 1517 1518 1518 1518 1518 1518 1518 1518 1518 1518 1518 1518 1518 1517 1517 1517 1516 1516 1516 1515 1515
1478 1481 1484 1487 1489 1492 1494 1496 1499 1501 1503 1504 1505 1506 1508 1509 1510 1511 1512 1513 1514 1515 1515 1516 1516 1516 1516 1516 1516 1516 1516 1516 1516 1516 1516 1515 1515 1515 1514 1514 1513 1513 1513
1478 1480 1483 1486 1488 1490 1493 1495 1497 1500 1502 1503 1504 1505 1506 1507 1508 1510 1510 1511 1512 1512 1513 1514 1514 1514 1514 1514 1515 1515 1515 1514 1514 1514 1513 1513 1513 1512 1512 1512 1511 1511 1511
1477 1479 1482 1485 1487 1489 1492 1494 1496 1499 1501 1502 1503 1503 1504 1505 1507 1508 1509 1509 1510 1510 1510 1511 1512 1512 1512 1512 1512 1512 1513 1512 1512 1512 1511 1511 1511 1510 1510 1510 1509 1509 1508
1476 1477 1480 1483 1486 1488 1490 1492 1494 1497 1499 1500 1501 1502 1502 1504 1505 1505 1506 1506 1507 1508 1508 1509 1509 1510 1510 1510 1510 1510 1510 1510 1510 1510 1509 1509 1509 1508 1508 1508 1507 1507 1506
1475 1477 1480 1483 1485 1487 1489 1491 1492 1495 1497 1498 1499 1500 1501 1501 1502 1503 1503 1504 1504 1505 1506 1506 1507 1507 1507 1507 1507 1507 1507 1507 1507 1507 1507 1507 1507 1506 1506 1506 1505 1505 1504
1475 1476 1479 1482 1484 1486 1487 1488 1491 1493 1494 1495 1496 1497 1498 1499 1499 1500 1501 1501 1502 1502 1502 1503 1503 1503 1503 1504 1504 1504 1504 1504 1504 1505 1505 1504 1504 1504 1504 1504 1503 1503 1502
1475 1476 1478 1480 1482 1484 1486 1488 1489 1491 1492 1493 1494 1495 1496 1496 1496 1497 1498 1498 1499 1499 1499 1499 1499 1499 1500 1500 1501 1501 1501 1501 1501 1502 1502 1502 1502 1502 1502 1501 1501 1500 1500
1474 1476 1477 1479 1481 1482 1484 1486 1487 1488 1489 1490 1491 1492 1493 1493 1493 1494 1495 1495 1495 1496 1496 1496 1496 1496 1496 1497 1498 1498 1498 1498 1498 1499 1499 1499 1499 1499 1499 1499 1498 1498 1498
1474 1475 1476 1478 1479 1480 1482 1483 1484 1485 1486 1487 1488 1490 1490 1491 1491 1491 1492 1492 1492 1492 1492 1492 1493 1493 1492 1493 1494 1494 1494 1495 1495 1495 1496 1496 1496 1496 1496 1496 1495 1495 1495
1473 1474 1475 1476 1478 1479 1480 1481 1481 1482 1483 1485 1486 1486 1487 1488 1488 1489 1489 1489 1489 1489 1489 1489 1489 1489 1489 1489 1490 1491 1491 1491 1492 1492 1492 1492 1493 1493 1492 1492 1492 1492 1492
1471 1473 1474 1475 1476 1477 1478 1479 1480 1481 1482 1482 1483 1483 1484 1485 1485 1486 1486 1485 1485 1486 1486 1486 1485 1486 1486 1486 1486 1487 1487 1488 1488 1488 1488 1488 1489 1489 1489 1489 1489 1489 1489
1469 1470 1472 1473 1474 1475 1475 1476 1478 1479 1480 1480 1480 1481 1481 1482 1482 1482 1482 1482 1482 1482 1482 1482 1482 1482 1482 1482 1483 1483 1483 1484 1484 1484 1485 1485 1485 1485 1485 1485 1485 1485 1485
1468 1469 1469 1470 1471 1472 1473 1474 1475 1476 1477 1478 1478 1478 1478 1478 1479 1479 1478 1477 1478 1478 1478 1478 1478 1478 1478 1479 1479 1479 1479 1480 1480 1480 1481 1481 1480 1481 1481 1481 1481 1481 1481
1467 1467 1467 1468 1469 1470 1471 1471 1472 1473 1474 1474 1474 1475 1475 1475 1475 1475 1474 1475 1476 1474 1475 1475 1474 1474 1474 1475 1475 1475 1475 1475 1476 1476 1476 1476 1476 1476 1477 1477 1477 1477 1476
1466 1466 1466 1466 1466 1467 1468 1469 1469 1470 1470 1470 1471 1471 1472 1472 1472 1471 1470 1471 1471 1471 1471 1471 1471 1471 1471 1471 1471 1471 1472 1472 1472 1472 1472 1472 1472 1472 1472 1472 1472 1472 1472